Location: Centerville
(32.8776°N, 96.6203°W)
Time: 03:17:56
(UTC+00:00)

Cosmos 2279 Rocket - Pass Details

Date: 17 June 2021
Orbit: 963 x 980 km, 82.9° (Epoch: 29 July)

Event Time Altitude Azimuth Distance (km) Brightness Sun altitude
Rises 07:24:07 0° 354° (N) 3,676 8.0 -32.1°
Reaches altitude 10° 07:26:38 10° 355° (N) 2,723 7.1 -32.0°
Enters shadow 07:32:18 75° 10° (N) 1,006 4.0 -31.6°
